YAOGAN 9B

导读

YAOGAN 9B(遥感九号B星)是中国研制发射的遥感卫星,于北京时间2010年3月5日在酒泉卫星发射中心由长征四号丙运载火箭送入预定轨道,属于遥感九号卫星组网成员。该卫星主要用于开展科学试验、国土资源普查、农作物估产及防灾减灾等领域任务,将为中国国民经济建设提供空间信息支撑,是中国空间基础设施建设的重要组成部分。

基本信息
目录编号:
36414
目录名称:
YAOGAN 9B
国际标识:
2010-009B
轨道中心:
EARTH
卫星名称:
YAOGAN 9B
卫星全名:
--
卫星状态:
在轨 (已飞行5988 天)
发射日期:
2010-03-05 UTC
国别 :
中国 (CN)
星等 :
--
轨道信息
数据来源 国际轨道数据 AOE轨道数据
星历时间 2026-07-27T20:43:05+0800
8小时前
查看轨道信息
2026-07-25T03:00:00+0800
3天前
查看轨道信息
半长轴 7466.21km 7466.215km
偏心率 0.0541615 0.0541393
轨道倾角 63.364° 63.364°
近地点辐角 21.198° 21.190°
升交点赤经 253.455° 260.542°
平近点角 341.058° 35.397°
近地点 683.691km 683.862km
远地点 1492.455km 1492.294km
周期 107.006分钟 107.007分钟
每日圈数 13.457132 13.457119
详细信息
使用方式:
暂无
2D轨道图
3D轨道图
轨道高度分析图
轨道倾角分析图
轨道综合分析图
查看轨道综合分析图